Preview of NWS' New Version of Forecast
This preview is not operational and should not be used for support decisions.
Latest weather observations around

Santa Barbara, Santa Barbara Municipal Airport (KSBA)

Using English Units (Switch to International System of Units)
Date/ Time (PDT) Wind (mph) Vis. (mi) Weather Sky Cond. Temp (°F) Rel. Humidity Wind Chill (°F) Heat Index (°F) Pressure Precip. (in)
Air Dwpt 6 hour Altimeter (inHg) Sea level (inHg) 1 hr 3 hr 6 hr
Max Min
Jun 25 17:53 SW 3 10 Cloudy SCT012 OVC016 64 57     78%     29.89 29.88      
Jun 25 16:53 W 6 10 Cloudy SCT012 OVC020 64 57     78%     29.9 29.9      
Jun 25 15:53 WNW 6 10 Cloudy SCT009 OVC019 63 57     81%     29.91 29.91      
Jun 25 15:34 W 6 10 Cloudy SCT009 OVC019 64 58     81%     29.91        
Jun 25 14:53 WSW 7 10 Cloudy BKN009 OVC015 63 57     81%     29.91 29.91      
Jun 25 14:03 WSW 7 10 Cloudy BKN009 OVC015 64 58     81%     29.92        
Jun 25 13:56 WSW 6 10 Cloudy OVC016 65 58     78%     29.92        
Jun 25 13:53 WSW 6 10 Cloudy BKN009 OVC015 64 58     81%     29.92 29.92      
Jun 25 12:53 W 5 10 Cloudy BKN009 OVC017 63 58     84%     29.92 29.92      
Jun 25 11:53 WSW 6 10 Cloudy BKN009 OVC017 63 58     84%     29.92 29.92      
Jun 25 10:57 WSW 7 10 Cloudy BKN009 OVC017 62 58     86%     29.92        
Jun 25 10:53 W 7 10 Cloudy BKN006 OVC017 62 58     86%     29.92 29.91      
Jun 25 09:53 WSW 6 10 Cloudy BKN006 OVC017 62 58     86%     29.91 29.9      
Jun 25 08:53 Calm 10 Cloudy BKN005 OVC017 61 58     90%     29.89 29.89      
Jun 25 07:53 W 7 10 Cloudy BKN005 OVC017 59 58     96%     29.88 29.88      
Jun 25 06:53 W 6 10 Cloudy BKN005 OVC019 58 57     97%     29.86 29.86      
Jun 25 05:53 WNW 5 10 Cloudy BKN005 OVC019 58 57     97%     29.86 29.85      
Jun 25 05:27 WNW 5 4 Fog/Mist OVC005 58 57     97%     29.86        
Jun 25 04:53 W 6 5 Fog/Mist OVC006 58 57     97%     29.86 29.85      
Jun 25 04:43 W 3 4 Fog/Mist BKN004 OVC012 58 57     97%     29.85        
Jun 25 04:05 W 6 4 Fog/Mist OVC005 58 57     97%     29.85        
Jun 25 03:53 W 7 4 Fog/Mist OVC004 58 57     97%     29.85 29.85      
Jun 25 02:53 W 7 3 Clear   58 58     100%     29.86 29.85      
Jun 25 01:53 W 6 4 Fog/Mist OVC005 59 58     96%     29.87 29.87      
Jun 25 01:48 W 7 4 Fog/Mist OVC003 59 57     94%     29.87        
Jun 25 00:53 WSW 6 4 Fog/Mist BKN005 OVC009 60 58     93%     29.87 29.87      
Jun 24 23:53 W 3 5 Fog/Mist OVC007 60 58     93%     29.87 29.87      
Jun 24 23:00 W 6 10 Cloudy OVC009 61 58     90%     29.86        
Jun 24 22:53 WSW 7 10 Cloudy OVC010 61 58     90%     29.86 29.86      
Jun 24 21:53 WSW 6 10 Cloudy OVC011 61 57     87%     29.86 29.86      
Jun 24 20:53 W 8 10 Cloudy OVC013 61 58     90%     29.86 29.86      
Jun 24 19:53 W 11 10 Cloudy OVC013 62 58     86%     29.86 29.86      
Jun 24 18:53 W 9 10 Cloudy FEW012 OVC014 63 58     84%     29.86 29.86      
Jun 24 17:53 WSW 9 10 Clear   64 58     81%     29.86 29.86      
Jun 24 16:53 W 10 10 Cloudy FEW010 OVC014 64 58     81%     29.89 29.89      
Jun 24 15:53 W 7 10 Cloudy SCT010 OVC016 65 59     81%     29.89 29.88      
Jun 24 14:53 SW 7 10 Cloudy SCT010 OVC016 65 59     81%     29.91 29.91      
Jun 24 13:53 SSE 6 10 Cloudy SCT013 OVC016 65 59     81%     29.92 29.92      
Jun 24 12:53 SSE 8 10 Cloudy OVC017 65 60     84%     29.93 29.93      
Jun 24 11:53 SSE 10 10 Cloudy OVC015 64 59     84%     29.93 29.93      
Jun 24 11:10 SE 8 10 Cloudy OVC013 64 59     84%     29.94        
Jun 24 10:53 SSE 9 10 Cloudy BKN009 OVC012 64 59     84%     29.94 29.94      
Jun 24 09:53 Calm 10 Cloudy BKN009 OVC012 64 58     81%     29.93 29.93      
Jun 24 08:53 E 3 10 Cloudy BKN006 OVC010 62 59     90%     29.93 29.93      
Jun 24 07:53 ENE 5 5 Fog/Mist OVC006 60 58     93%     29.93 29.93      
Jun 24 06:53 ENE 6 3 Fog/Mist OVC007 59 58     96%     29.93 29.93      
Jun 24 05:53 E 5 6 Fog/Mist OVC007 59 57     93%     29.91 29.91      
Jun 24 05:28 E 5 7 Cloudy OVC005 59 57     93%     29.91        
Jun 24 04:53 ESE 7 4 Fog/Mist OVC003 58 57     97%     29.91 29.91      
Jun 24 03:53 ESE 6 7 Cloudy OVC003 58 57     97%     29.91 29.91      
Jun 24 02:53 SE 10 7 Cloudy OVC004 58 57     97%     29.91 29.91      
Jun 24 01:53 ESE 8 5 Fog/Mist OVC004 59 58     96%     29.91 29.91      
Jun 24 01:07 ESE 7 3 Fog/Mist OVC002 58 58     100%     29.93        
Jun 24 00:53 ESE 7 2.5 Fog/Mist OVC002 59 58     96%     29.93 29.92      
Jun 24 00:24 E 7 2.5 Fog/Mist OVC002 59 58     96%     29.93        
Jun 24 00:13 ESE 6 3 Fog/Mist OVC002 58 58     100%     29.93        
Jun 24 00:02 SE 7 2 Fog/Mist OVC002 59 58     96%     29.93        
Jun 23 23:53 ESE 6 3 Fog/Mist OVC002 59 58     96%     29.93 29.93      
Jun 23 23:49 SE 6 3 Fog/Mist OVC002 59 57     94%     29.93        
Jun 23 23:38 E 5 1.75 Fog/Mist OVC003 59 57     93%     29.93        
Jun 23 23:10 ESE 5 7 Cloudy OVC004 59 57     93%     29.92        
Jun 23 22:53 SE 6 8 Cloudy OVC005 59 57     93%     29.92 29.92      
Jun 23 21:53 Calm 10 Cloudy OVC005 59 57     93%     29.93 29.92      
Jun 23 20:53 W 8 10 Cloudy OVC006 59 57     93%     29.92 29.92      
Jun 23 19:53 W 13 10 Partly Cloudy SCT007 60 56     86%     29.92 29.91      
Jun 23 18:53   10 Partly Cloudy SCT006 62 57     84%     29.92 29.92      
Jun 23 17:53 W 13 10 Mostly Clear FEW007 64 58     81%     29.92 29.92      
Jun 23 17:05 W 11 10 Partly Cloudy SCT007 66 59     78%     29.94        
Jun 23 16:53 WSW 11 10 Partly Cloudy SCT010 66 58     75%     29.94 29.94      
Jun 23 15:53 W 10 10 Mostly Clear FEW014 69 58     68%     29.96 29.96      
Jun 23 14:53 SW 9 10 Partly Cloudy SCT014 SCT025 68 58     70%     29.98 29.98      
Jun 23 13:53 S 9 10 Mostly Clear FEW025 68 58     70%     30 29.99      
Jun 23 13:38 6 10 Partly Cloudy SCT016 68 58     70%     30        
Jun 23 13:33 7 10 Mostly Cloudy BKN016 68 58     70%     30        
Jun 23 13:04 SSE 7 10 Cloudy OVC013 66 57     73%     30.01        
Jun 23 12:53 S 7 6 Fog/Mist OVC009 66 57     73%     30.01 30.01      
Jun 23 11:53 S 7 6 Fog/Mist OVC008 64 58     81%     30.02 30.02      
Jun 23 10:53 SSE 6 6 Fog/Mist OVC008 62 57     84%     30.01 30.01      
Jun 23 09:53 S 5 6 Fog/Mist OVC007 61 57     87%     30.01 30.01      
Jun 23 08:53 SSE 3 4 Fog/Mist OVC004 59 57     93%     30.01 30.01      
Jun 23 07:53 SE 5 4 Fog/Mist OVC004 58 57     97%     30 30      
Jun 23 06:53 SSE 3 6 Fog/Mist OVC005 58 56     93%     29.99 29.99      
Jun 23 05:53 SSE 3 6 Fog/Mist OVC005 58 56     93%     29.97 29.97      
Jun 23 04:53 SE 6 8 Cloudy OVC005 58 56     93%     29.98 29.98      
Jun 23 03:53 SE 6 8 Cloudy OVC005 58 56     93%     29.97 29.97      
Jun 23 02:53 SSE 6 8 Clear   58 56     93%     29.97 29.97      
Jun 23 01:53 SSE 6 8 Cloudy OVC007 59 56     90%     29.98 29.97      
Jun 23 00:53 SSE 3 9 Cloudy OVC007 59 56     90%     29.98 29.98      
Jun 22 23:53 SSE 5 9 Cloudy OVC006 59 56     90%     29.98 29.98      
Jun 22 22:53 Calm 8 Cloudy OVC007 59 56     90%     29.97 29.96      
Jun 22 22:01 Calm 9 Mostly Cloudy BKN007 59 56     90%     29.96        
Jun 22 21:53 WSW 3 9 Partly Cloudy SCT007 59 56     90%     29.95 29.95      
Jun 22 21:40 WSW 5 9 Partly Cloudy SCT007 59 56     90%     29.95        
Jun 22 20:53 WSW 6 10 Clear CLR 60 57     90%     29.95 29.94      
Jun 22 19:53 W 9 10 Clear CLR 62 57     84%     29.93 29.93      
May 15 11:53 S 8 10 Mostly Clear FEW040 63 53     70%     30.07 30.06      
May 15 01:53 Calm 10 Clear   52 47     83%     29.98 29.98      
May 14 16:53 W 15 10 Clear CLR 64 48     56%     29.96 29.95      
May 14 13:53   10 Clear CLR 66 50     56%     30 30      
May 12 22:53 W 8 10 Cloudy OVC042 58 53     84%     30.01 30.01      
May 12 00:53 Calm 10 Cloudy OVC019 57 51     81%     29.88 29.87      
May 11 17:53 W 7 10 Cloudy OVC018 58 51     78%     29.81 29.81      
May 11 08:53 SSW 6 8 Cloudy OVC026 59 53     81%     29.87 29.87      
Jun 11 20:53 WNW 13 10 Clear CLR 60 42     51%     29.93 29.93      
Jun 11 19:53 NNW 16 10 Clear CLR 63 41     45%     29.92 29.92      
Jun 10 01:53 E 6 10 Clear CLR 60 52     75%     29.86 29.86      
Jun 09 14:53   10 Partly Cloudy FEW004 SCT040 69 61     75%     29.91 29.91      
Jun 08 20:33 SE 11 10 Clear CLR 63 56     78%     29.9        
Jun 08 09:04 WSW 6 10 Partly Cloudy SCT030 64 56     75%     30.01        
Jun 08 04:53 Calm 10 Cloudy FEW010 OVC019 59 57     93%     29.99 29.98      
Jun 07 23:53 Calm 10 Cloudy OVC019 61 57     87%     29.98 29.97      
Jun 07 22:53 W 7 10 Cloudy OVC020 59 57     93%     29.98 29.98      
Jun 07 15:53 W 9 10 Cloudy OVC023 64 57     78%     29.95 29.95